Flight Track Log - Related Links

Times and Time Zones

All times are in EDT time to prevent confusion due to time zone crossing. See the N53NW flight status page for this flight to view local times or setup timezone preferences in your user account.

Time Position Orientation Groundspeed Altitude Reporting Facility
EDT Latitude Longitude Course Direction KTS MPH feet Rate Location/Type
Mon 06:30:57 PM 34.3211 -83.5281 162° South 293 337 6,700  Level Atlanta Center
Mon 06:31:57 PM 34.2417 -83.5011 164° South 288 331 9,400 1,950 Climbing Atlanta Center
Mon 06:32:57 PM 34.1561 -83.4664 161° South 305 351 10,600 1,950 Climbing Atlanta Center
Mon 06:33:57 PM 34.0744 -83.4369 163° South 321 369 13,300 2,500 Climbing Atlanta Center
Mon 06:34:57 PM 33.9889 -83.4025 162° South 321 369 15,600 2,100 Climbing Atlanta Center
Mon 06:35:00 PM 34.0213 -83.3237 166° South  Level Estimated
Mon 06:35:57 PM 33.9156 -83.3756 163° South 321 369 17,500  Level Atlanta Center
Mon 06:36:57 PM 33.8319 -83.3461 164° South 321 369 19,600 2,000 Climbing Atlanta Center
Mon 06:37:57 PM 33.7503 -83.3142 162° South 316 364 21,500 1,900 Climbing Atlanta Center
Mon 06:38:57 PM 33.6667 -83.2825 163° South 316 364 23,400 1,850 Climbing Atlanta Center
Mon 06:39:57 PM 33.5808 -83.2533 164° South 316 364 25,200 1,650 Climbing Atlanta Center
Mon 06:40:57 PM 33.4908 -83.2192 162° South 331 381 26,700 1,400 Climbing Atlanta Center
Mon 06:41:57 PM 33.3906 -83.1831 163° South 338 389 28,000 650 Climbing Atlanta Center
Mon 06:42:57 PM 33.2942 -83.1467 162° South 358 412 28,000  Level Atlanta Center
Mon 06:43:57 PM 33.1853 -83.1081 163° South 391 450 28,000  Level Atlanta Center
Mon 06:44:57 PM 33.0786 -83.0644 161° South 404 465 28,000  Level Atlanta Center
Mon 06:45:57 PM 32.9842 -83.0186 158° South 404 465 28,000  Level Atlanta Center
Mon 06:46:57 PM 32.8856 -82.9578 153° Southeast 404 465 28,000  Level Atlanta Center
Mon 06:47:57 PM 32.7828 -82.8972 154° Southeast 404 465 28,000  Level Atlanta Center
Mon 06:48:57 PM 32.6822 -82.8369 153° Southeast 404 465 28,000  Level Atlanta Center
Mon 06:52:42 PM 32.2936 -82.5978 153° Southeast 409 471 28,000  Level Jacksonville Center
Mon 06:53:42 PM 32.1911 -82.5292 150° Southeast 414 476 28,000  Level Jacksonville Center
Mon 06:54:42 PM 32.0928 -82.4683 152° Southeast 414 476 28,000  Level Jacksonville Center
Mon 06:55:42 PM 31.9819 -82.4419 169° South 399 459 28,000 -2,000 Level Jacksonville Center
Mon 06:56:42 PM 31.8733 -82.4203 170° South 399 459 24,000 -2,000 Descending Jacksonville Center
Mon 06:57:42 PM 31.7647 -82.3964 169° South 399 459 24,000 -151 Level Jacksonville Center
Mon 06:58:41 PM 31.6603 -82.3753 170° South 389 448 23,700 -700 Descending Jacksonville Center
Mon 06:59:42 PM 31.5536 -82.3539 170° South 389 448 22,600 -1,587 Descending Jacksonville Center
Mon 07:00:42 PM 31.4492 -82.3325 170° South 389 448 20,500 -2,150 Descending Jacksonville Center
Mon 07:01:42 PM 31.3489 -82.3161 172° South 368 423 18,300 -2,017 Descending Jacksonville Center
Mon 07:02:41 PM 31.2589 -82.2972 170° South 357 411 16,500 -1,714 Descending Jacksonville Center
Mon 07:03:27 PM 31.1900 -82.2806 168° South 334 384 15,300 -1,636 Descending Jacksonville Center
Mon 07:04:42 PM 31.0731 -82.2569 170° South 346 398 13,200 -1,478 Descending Jacksonville Center
Mon 07:05:41 PM 30.9914 -82.2236 161° South 325 374 12,000 -1,200 Descending Jacksonville Center
Mon 07:06:42 PM 30.9325 -82.1492 133° Southeast 300 345 10,800 -1,339 Descending Jacksonville Center
Mon 07:07:42 PM 30.8903 -82.0914 130° Southeast 300 345 9,300 -1,650 Descending Jacksonville Center
Mon 07:08:42 PM 30.8314 -82.0119 131° Southeast 300 345 7,500 -1,800 Descending Jacksonville Center
Mon 07:09:42 PM 30.7808 -81.9422 130° Southeast 293 337 5,700 -1,949 Descending Jacksonville Center
Mon 07:10:39 PM 30.7281 -81.8703 130° Southeast 274 315 3,700 -1,846 Descending Jacksonville Center
Mon 07:11:39 PM 30.6772 -81.8008 130° Southeast 265 305 2,100 -992 Descending Jacksonville Center
Mon 07:12:40 PM 30.6308 -81.7411 132° Southeast 254 292 1,700 -224 Descending Jacksonville Center
Mon 07:13:53 PM 30.5822 -81.6667 127° Southeast 212 244 1,600 -313 Descending Jacksonville Center
Mon 07:14:54 PM 30.5464 -81.6333 141° Southeast 140 161 1,000 -545 Descending Jacksonville Center
Mon 07:15:54 PM 30.5150 -81.6436 196° South 130 150 500 -500 Descending Jacksonville Center
Mon 07:17:00 PM 30.4941 -81.6879 135° Southeast  Level Estimated
Mon 07:24:00 PM 30.4941 -81.6879 311° West  Level Estimated

Login

Don't have an account? Register now (free) for customized features, flight alerts, and more!